Change the Weather History Date:

Monday, January 20, 2014

  Actual Average Record
Temperature  
Mean Temperature 22 °F -  
Max Temperature 36 °F 24 °F 36 °F (2014)
Min Temperature 6 °F 8 °F -26 °F (2008)
Degree Days  
Heating Degree Days 42    
Moisture  
Dew Point 16 °F    
Average Humidity 74    
Maximum Humidity 82    
Minimum Humidity 56    
Precipitation  
Precipitation 0.00 in - - ()
Sea Level Pressure  
Sea Level Pressure 29.95 in    
Wind  
Wind Speed 10 mph (North)    
Max Wind Speed 18 mph    
Max Gust Speed 25 mph    
Visibility 6 miles    
Events Snow    
Averages and records for this station are not official NWS values.
T = Trace of Precipitation, MM = Missing Value Source: NWS Daily Summary

Daily Weather History Graph

Daily Weather History Graph

Search for Another Location

Airport or City:

Trip Planner

Search our weather history database for the weather conditions in past years. The results will help you decide how hot, cold, wet, or windy it might be!

Date:

Astronomy

Jan. 20, 2014 Rise Set
Actual Time 7:26 AM CST 4:57 PM CST
Civil Twilight 6:55 AM CST 5:28 PM CST
Nautical Twilight 6:20 AM CST 6:03 PM CST
Astronomical Twilight 5:46 AM CST 6:37 PM CST
Moon 9:41 PM CST (1/20) 9:18 AM CST (1/20)
Length of Visible Light 10h 32m
Length of Day
9h 30m
Waning Gibbous, 82% of the Moon is Illuminated
Jan 20
Waning Gibbous
Jan 23
Last Quarter
Jan 30
New
Feb 6
First Quarter
Feb 14
Full

Hourly Weather History & Observations

Time (CST) Temp. Windchill Dew Point Humidity Pressure Visibility Wind Dir Wind Speed Gust Speed Precip Events Conditions
12:20 AM 36.0 °F 28.0 °F 26.1 °F 67% 29.65 in 10.0 mi NW 11.5 mph 19.6 mph N/A   Overcast
12:56 AM 35.1 °F 27.9 °F 25.0 °F 67% 29.68 in 10.0 mi NW 9.2 mph - N/A   Overcast
1:56 AM 34.0 °F 26.0 °F 24.1 °F 67% 29.71 in 10.0 mi NW 10.4 mph - N/A   Overcast
2:54 AM 33.8 °F 29.6 °F 24.8 °F 70% 29.73 in 10.0 mi NW 4.6 mph - N/A   Overcast
2:56 AM 33.1 °F 28.7 °F 25.0 °F 72% 29.74 in 10.0 mi WNW 4.6 mph - N/A   Overcast
3:15 AM 33.1 °F 26.9 °F 24.1 °F 70% 29.73 in 10.0 mi WNW 6.9 mph - N/A   Overcast
3:25 AM 33.1 °F 25.5 °F 24.1 °F 70% 29.74 in 10.0 mi WNW 9.2 mph - N/A   Overcast
3:56 AM 33.1 °F 25.5 °F 24.1 °F 70% 29.73 in 10.0 mi WNW 9.2 mph - N/A   Mostly Cloudy
4:56 AM 32.0 °F 24.2 °F 24.1 °F 73% 29.75 in 10.0 mi West 9.2 mph - N/A   Overcast
5:56 AM 32.0 °F 24.8 °F 24.1 °F 73% 29.77 in 10.0 mi West 8.1 mph - N/A   Overcast
6:30 AM 32.0 °F 24.2 °F 23.0 °F 69% 29.76 in 10.0 mi West 9.2 mph - N/A   Overcast
6:56 AM 30.0 °F 25.2 °F 24.1 °F 79% 29.78 in 10.0 mi WSW 4.6 mph - N/A   Overcast
7:56 AM 30.0 °F 25.2 °F 23.0 °F 75% 29.81 in 10.0 mi West 4.6 mph - N/A   Overcast
8:18 AM 30.0 °F 25.2 °F 23.0 °F 75% 29.80 in 10.0 mi West 4.6 mph - N/A   Overcast
8:56 AM 30.9 °F 25.2 °F 23.0 °F 72% 29.82 in 10.0 mi West 5.8 mph - N/A   Overcast
9:25 AM 30.9 °F 24.3 °F 24.1 °F 76% 29.83 in 10.0 mi WSW 6.9 mph - N/A   Overcast
9:43 AM 30.9 °F 23.5 °F 24.1 °F 76% 29.84 in 10.0 mi West 8.1 mph - N/A   Overcast
9:56 AM 30.9 °F 22.8 °F 24.1 °F 76% 29.86 in 10.0 mi West 9.2 mph - N/A   Overcast
10:56 AM 30.0 °F 19.5 °F 23.0 °F 75% 29.89 in 9.0 mi NNE 13.8 mph - N/A   Overcast
11:08 AM 28.0 °F 17.0 °F 21.0 °F 75% 29.89 in 7.0 mi NNE 13.8 mph - N/A   Overcast
11:29 AM 26.1 °F 15.0 °F 19.9 °F 78% 29.89 in 7.0 mi NNE 12.7 mph - N/A   Overcast
11:56 AM 27.0 °F 19.5 °F 19.9 °F 75% 29.91 in 7.0 mi NE 6.9 mph - N/A   Overcast
12:08 PM 27.0 °F 19.5 °F 19.9 °F 75% 29.90 in 6.0 mi NNE 6.9 mph - N/A   Haze
12:49 PM 25.0 °F 14.8 °F 19.0 °F 78% 29.91 in 2.5 mi NNE 10.4 mph - 0.00 in Snow Light Snow
12:56 PM 25.0 °F 14.8 °F 18.0 °F 75% 29.92 in 4.0 mi NNE 10.4 mph - 0.00 in Snow Light Snow
1:44 PM 24.1 °F 15.2 °F 17.1 °F 75% 29.92 in 2.0 mi NE 8.1 mph - 0.00 in Snow Light Snow
1:48 PM 23.0 °F 14.7 °F 17.1 °F 78% 29.92 in 1.8 mi NNE 6.9 mph - 0.00 in Snow Light Snow
1:56 PM 23.0 °F 13.9 °F 17.1 °F 78% 29.93 in 2.0 mi NE 8.1 mph - 0.00 in Snow Light Snow
2:07 PM 23.0 °F 14.7 °F 17.1 °F 78% 29.92 in 4.0 mi NE 6.9 mph - 0.00 in Snow Light Snow
2:23 PM 23.0 °F 13.9 °F 16.0 °F 74% 29.94 in 2.5 mi NNE 8.1 mph - 0.00 in Snow Light Snow
2:41 PM 21.9 °F 15.7 °F 16.0 °F 78% 29.94 in 1.5 mi NE 4.6 mph - 0.00 in Snow Light Snow
2:56 PM 21.9 °F 13.4 °F 17.1 °F 82% 29.96 in 1.5 mi ENE 6.9 mph - 0.00 in Snow Light Snow
3:21 PM 21.9 °F 12.5 °F 17.1 °F 82% 29.96 in 1.2 mi ENE 8.1 mph - 0.00 in Snow Light Snow
3:45 PM 21.0 °F 10.6 °F 16.0 °F 81% 29.98 in 1.0 mi NNE 9.2 mph - 0.00 in Snow Light Snow
3:56 PM 19.9 °F 7.3 °F 15.1 °F 81% 30.00 in 1.0 mi NE 12.7 mph - 0.00 in Snow Light Snow
4:40 PM 18.0 °F 4.8 °F 10.9 °F 74% 30.02 in 1.8 mi NE 12.7 mph - 0.00 in Snow Light Snow
4:48 PM 18.0 °F 7.7 °F 12.0 °F 78% 30.02 in 2.0 mi NE 8.1 mph - 0.00 in Snow Light Snow
4:56 PM 18.0 °F 4.2 °F 10.9 °F 74% 30.05 in 3.0 mi NE 13.8 mph - 0.00 in Snow Light Snow
5:13 PM 17.1 °F 4.3 °F 10.9 °F 77% 30.04 in 2.5 mi NE 11.5 mph - 0.00 in Snow Light Snow
5:21 PM 17.1 °F 5.8 °F 10.9 °F 77% 30.05 in 3.0 mi NNE 9.2 mph - 0.00 in Snow Light Snow
5:32 PM 17.1 °F 2.0 °F 10.9 °F 77% 30.05 in 2.0 mi NE 16.1 mph 20.7 mph 0.00 in Snow Light Snow
5:43 PM 17.1 °F 4.3 °F 10.0 °F 74% 30.06 in 3.0 mi NNE 11.5 mph - 0.00 in Snow Light Snow
5:56 PM 16.0 °F 0.6 °F 9.0 °F 74% 30.09 in 2.5 mi NE 16.1 mph 21.9 mph 0.00 in Snow Light Snow
6:10 PM 16.0 °F 1.7 °F 9.0 °F 74% 30.08 in 3.0 mi NNE 13.8 mph - 0.00 in Snow Light Snow
6:56 PM 15.1 °F 2.5 °F 8.1 °F 74% 30.12 in 2.5 mi NNE 10.4 mph - 0.00 in Snow Light Snow
7:04 PM 15.1 °F 1.1 °F 9.0 °F 77% 30.10 in 1.8 mi NNE 12.7 mph - 0.00 in Snow Light Snow
7:16 PM 14.0 °F -2.0 °F 9.0 °F 80% 30.11 in 0.8 mi North 16.1 mph - 0.00 in Snow Light Snow
7:26 PM 14.0 °F -0.2 °F 8.1 °F 77% 30.11 in 1.5 mi North 12.7 mph - 0.00 in Snow Light Snow
7:32 PM 14.0 °F -0.2 °F 7.0 °F 74% 30.11 in 2.0 mi North 12.7 mph 21.9 mph 0.00 in Snow Light Snow
7:41 PM 12.9 °F -3.4 °F 6.1 °F 74% 30.12 in 3.0 mi North 16.1 mph 25.3 mph 0.00 in Snow Light Snow
7:56 PM 12.9 °F -1.6 °F 6.1 °F 74% 30.15 in 4.0 mi North 12.7 mph 23.0 mph 0.00 in Snow Light Snow
8:19 PM 12.0 °F -5.6 °F 5.0 °F 73% 30.15 in 2.5 mi North 18.4 mph - 0.00 in Snow Light Snow
8:37 PM 12.0 °F -4.0 °F 3.0 °F 67% 30.16 in 3.0 mi North 15.0 mph - 0.00 in Snow Light Snow
8:56 PM 10.9 °F -3.4 °F 3.0 °F 70% 30.19 in 4.0 mi North 11.5 mph 24.2 mph 0.00 in Snow Light Snow
9:56 PM 10.0 °F -5.9 °F -2.9 °F 56% 30.23 in 10.0 mi North 13.8 mph - 0.00 in   Overcast
10:56 PM 9.0 °F -7.3 °F -2.9 °F 59% 30.26 in 10.0 mi North 13.8 mph - N/A   Overcast
11:56 PM 6.1 °F -13.3 °F -6.0 °F 58% 30.29 in 10.0 mi North 18.4 mph 24.2 mph N/A   Mostly Cloudy